TimeEDT,TemperatureF,Dew PointF,Humidity,Sea Level PressureIn,VisibilityMPH,Wind Direction,Wind SpeedMPH,Gust SpeedMPH,PrecipitationIn,Events,Conditions,WindDirDegrees,DateUTC
12:15 AM,42.8,19.4,39,30.29,10.0,NE,6.9,-,N/A,,Clear,50,2013-04-04 04:15:00
12:35 AM,42.8,17.6,36,30.28,10.0,ENE,8.1,-,N/A,,Clear,60,2013-04-04 04:35:00
12:55 AM,42.8,17.6,36,30.27,10.0,ENE,10.4,-,N/A,,Clear,60,2013-04-04 04:55:00
1:15 AM,42.8,17.6,36,30.27,10.0,ENE,10.4,-,N/A,,Clear,60,2013-04-04 05:15:00
1:55 AM,42.8,15.8,34,30.26,10.0,ENE,10.4,-,N/A,,Clear,70,2013-04-04 05:55:00
2:15 AM,41.0,15.8,36,30.24,10.0,ENE,11.5,-,N/A,,Clear,60,2013-04-04 06:15:00
2:35 AM,41.0,15.8,36,30.24,10.0,ENE,9.2,-,N/A,,Clear,60,2013-04-04 06:35:00
2:55 AM,41.0,15.8,36,30.24,10.0,ENE,9.2,-,N/A,,Clear,70,2013-04-04 06:55:00
3:15 AM,39.2,15.8,39,30.23,10.0,ENE,9.2,-,N/A,,Clear,70,2013-04-04 07:15:00
3:35 AM,39.2,15.8,39,30.22,10.0,ENE,8.1,-,N/A,,Clear,70,2013-04-04 07:35:00
3:55 AM,39.2,17.6,42,30.21,10.0,ENE,8.1,-,N/A,,Clear,60,2013-04-04 07:55:00
4:15 AM,39.2,17.6,42,30.20,10.0,ENE,9.2,-,N/A,,Clear,70,2013-04-04 08:15:00
4:35 AM,39.2,15.8,39,30.20,10.0,ENE,8.1,-,N/A,,Clear,60,2013-04-04 08:35:00
4:55 AM,39.2,17.6,42,30.20,10.0,ENE,6.9,-,N/A,,Clear,70,2013-04-04 08:55:00
5:35 AM,39.2,17.6,42,30.19,10.0,ENE,8.1,-,N/A,,Clear,60,2013-04-04 09:35:00
5:55 AM,39.2,15.8,39,30.18,10.0,ENE,8.1,-,N/A,,Clear,60,2013-04-04 09:55:00
6:15 AM,37.4,17.6,45,30.18,10.0,ENE,8.1,-,N/A,,Clear,60,2013-04-04 10:15:00
6:35 AM,37.4,15.8,41,30.17,10.0,NE,6.9,-,N/A,,Clear,50,2013-04-04 10:35:00
6:55 AM,37.4,17.6,45,30.18,10.0,NNE,6.9,-,N/A,,Clear,30,2013-04-04 10:55:00
7:15 AM,37.4,17.6,45,30.17,10.0,NE,6.9,-,N/A,,Clear,50,2013-04-04 11:15:00
7:35 AM,37.4,17.6,45,30.18,10.0,NE,5.8,-,N/A,,Clear,40,2013-04-04 11:35:00
7:55 AM,37.4,19.4,48,30.18,10.0,NNE,5.8,-,N/A,,Clear,30,2013-04-04 11:55:00
8:15 AM,37.4,19.4,48,30.18,10.0,NE,5.8,-,N/A,,Clear,50,2013-04-04 12:15:00
8:35 AM,37.4,21.2,52,30.18,10.0,NNE,4.6,-,N/A,,Clear,20,2013-04-04 12:35:00
8:55 AM,39.2,21.2,49,30.18,10.0,NE,4.6,-,N/A,,Clear,40,2013-04-04 12:55:00
9:15 AM,39.2,21.2,49,30.17,10.0,NE,5.8,-,N/A,,Clear,50,2013-04-04 13:15:00
9:35 AM,41.0,19.4,42,30.16,10.0,NE,8.1,-,N/A,,Clear,50,2013-04-04 13:35:00
9:55 AM,42.8,21.2,42,30.16,10.0,NE,6.9,-,N/A,,Clear,50,2013-04-04 13:55:00
10:15 AM,44.6,21.2,39,30.15,10.0,NE,8.1,-,N/A,,Clear,50,2013-04-04 14:15:00
10:35 AM,46.4,21.2,37,30.15,10.0,NE,9.2,-,N/A,,Clear,50,2013-04-04 14:35:00
10:55 AM,46.4,19.4,34,30.14,10.0,East,8.1,-,N/A,,Clear,80,2013-04-04 14:55:00
11:15 AM,46.4,21.2,37,30.13,10.0,East,5.8,-,N/A,,Clear,80,2013-04-04 15:15:00
11:35 AM,48.2,21.2,34,30.13,10.0,East,5.8,-,N/A,,Clear,80,2013-04-04 15:35:00
11:55 AM,48.2,23.0,37,30.13,10.0,NE,3.5,-,N/A,,Clear,40,2013-04-04 15:55:00
12:35 PM,51.8,24.8,35,30.12,10.0,NNW,3.5,-,N/A,,Clear,340,2013-04-04 16:35:00
12:55 PM,51.8,24.8,35,30.12,10.0,East,4.6,-,N/A,,Clear,90,2013-04-04 16:55:00
1:35 PM,53.6,21.2,28,30.10,10.0,Calm,Calm,-,N/A,,Clear,0,2013-04-04 17:35:00
1:55 PM,53.6,21.2,28,30.09,10.0,NE,4.6,-,N/A,,Clear,40,2013-04-04 17:55:00
2:15 PM,53.6,19.4,26,30.09,10.0,South,3.5,-,N/A,,Clear,170,2013-04-04 18:15:00
2:35 PM,53.6,21.2,28,30.08,10.0,South,3.5,-,N/A,,Clear,190,2013-04-04 18:35:00
2:55 PM,53.6,21.2,28,30.08,10.0,SSE,3.5,-,N/A,,Clear,160,2013-04-04 18:55:00
3:16 PM,53.6,21.2,28,30.07,10.0,South,3.5,-,N/A,,Clear,180,2013-04-04 19:16:00
3:35 PM,55.4,21.2,26,30.06,10.0,SE,4.6,-,N/A,,Clear,140,2013-04-04 19:35:00
3:55 PM,55.4,21.2,26,30.05,10.0,South,3.5,-,N/A,,Clear,190,2013-04-04 19:55:00
4:15 PM,55.4,21.2,26,30.04,10.0,Calm,Calm,-,N/A,,Clear,0,2013-04-04 20:15:00
4:35 PM,55.4,23.0,29,30.03,10.0,SSE,3.5,-,N/A,,Clear,150,2013-04-04 20:35:00
4:55 PM,57.2,21.2,25,30.03,10.0,SSW,4.6,-,N/A,,Clear,200,2013-04-04 20:55:00
5:15 PM,57.2,21.2,25,30.03,10.0,Calm,Calm,-,N/A,,Clear,0,2013-04-04 21:15:00
5:35 PM,55.4,21.2,26,30.03,10.0,WNW,4.6,-,N/A,,Clear,300,2013-04-04 21:35:00
6:15 PM,55.4,23.0,29,30.03,10.0,SSW,3.5,-,N/A,,Clear,210,2013-04-04 22:15:00
6:35 PM,55.4,21.2,26,30.03,10.0,SSW,3.5,-,N/A,,Clear,210,2013-04-04 22:35:00
6:55 PM,55.4,23.0,29,30.03,10.0,Calm,Calm,-,N/A,,Clear,0,2013-04-04 22:55:00
7:15 PM,55.4,24.8,31,30.03,10.0,Calm,Calm,-,N/A,,Clear,0,2013-04-04 23:15:00
7:35 PM,55.4,21.2,26,30.03,10.0,SW,3.5,-,N/A,,Clear,220,2013-04-04 23:35:00
7:55 PM,53.6,21.2,28,30.02,10.0,Calm,Calm,-,N/A,,Clear,0,2013-04-04 23:55:00
8:15 PM,53.6,21.2,28,30.02,10.0,Calm,Calm,-,N/A,,Clear,0,2013-04-05 00:15:00
8:35 PM,50.0,21.2,32,30.02,10.0,SSW,3.5,-,N/A,,Clear,200,2013-04-05 00:35:00
8:55 PM,48.2,21.2,34,30.02,10.0,WSW,3.5,-,N/A,,Clear,240,2013-04-05 00:55:00
9:15 PM,46.4,23.0,40,30.02,10.0,West,3.5,-,N/A,,Clear,270,2013-04-05 01:15:00
9:35 PM,46.4,24.8,43,30.03,10.0,West,3.5,-,N/A,,Clear,260,2013-04-05 01:35:00
9:55 PM,44.6,24.8,46,30.03,10.0,Calm,Calm,-,N/A,,Clear,0,2013-04-05 01:55:00
10:15 PM,44.6,24.8,46,30.03,10.0,Calm,Calm,-,N/A,,Clear,0,2013-04-05 02:15:00
10:35 PM,42.8,24.8,49,30.03,10.0,Calm,Calm,-,N/A,,Clear,0,2013-04-05 02:35:00
10:55 PM,42.8,24.8,49,30.03,10.0,Calm,Calm,-,N/A,,Clear,0,2013-04-05 02:55:00
11:15 PM,42.8,24.8,49,30.03,10.0,Calm,Calm,-,N/A,,Clear,0,2013-04-05 03:15:00
11:35 PM,41.0,24.8,53,30.03,10.0,Calm,Calm,-,N/A,,Clear,0,2013-04-05 03:35:00
11:55 PM,41.0,23.0,49,30.03,10.0,Calm,Calm,-,N/A,,Clear,0,2013-04-05 03:55:00